Regional Weather Roundup
Issued by NWS

Home | Current Version | Previous Version | Text Only | Print | Product List | Glossary Off
Versions: 1 2 3 4 5 6 7 8 9 10 11 12 13 14 15 16 17 18 19 20 21 22 23 24 25 26 27 28 29 30 31 32 33 34 35 36 37 38 39 40 41 42 43 44 45 46 47 48 49 50

000
ASUS43 KLOT 270704
RWRIL

ILLINOIS REGIONAL WEATHER ROUNDUP
NATIONAL WEATHER SERVICE CHICAGO/ROMEOVILLE IL
200 AM CDT SAT MAY 27 2017

NOTE: "FAIR" INDICATES FEW OR NO CLOUDS BELOW 12,000 FEET WITH NO
SIGNIFICANT WEATHER AND/OR OBSTRUCTIONS TO VISIBILITY.

* THESE STATIONS ARE NOT UNDER NWS QUALITY CONTROL. THEY ALSO MAY NOT
  REPORT WEATHER SUCH AS PRECIPITATION OR FOG.

ILZ001-002-007-009-015-016-024-270800-
NORTHWEST ILLINOIS

CITY           SKY/WX    TMP DP  RH WIND       PRES   REMARKS
MOLINE         CLOUDY    60  56  86 E7        29.87F FOG
STERLING*      CLEAR     54  54 100 CALM      29.88S FOG
SAVANNA*       FOG       51  51  99 E3        29.88F VSB 1/2
$$

ILZ003-004-008-010-011-017-018-270800-
NORTH CENTRAL ILLINOIS

CITY           SKY/WX    TMP DP  RH WIND       PRES   REMARKS
ROCKFORD       CLEAR     54  52  93 N3        29.91R FOG
FREEPORT*      FOG       50  50  99 CALM      29.91S VSB 1/4
ROCHELLE*      CLOUDY    55  55 100 CALM      29.89R FOG
DE KALB*       MOCLDY    53  52  98 NW3       29.89R FOG
PERU*          MOCLDY    55  54  94 N6        29.87F FOG
$$

ILZ005-006-012>014-019>023-270800-
NORTHEAST ILLINOIS

CITY           SKY/WX    TMP DP  RH WIND       PRES   REMARKS
CHICAGO-OHARE  MOCLDY    56  51  84 NE6       29.86S
CHICAGO-MIDWAY CLOUDY    57  54  89 N8        29.86R
AURORA         PTCLDY    55  54  96 CALM      29.87R FOG
LANSING*       MOCLDY    56  56 100 N5        29.86R
JOLIET*        CLOUDY    59  57  93 N3        29.86R
WAUKEGAN       PTCLDY    50  49  96 NE3       29.86F FOG
DUPAGE AIRPORT PTCLDY    53  53 100 N5        29.86S FOG
KANKAKEE*      CLOUDY    59  58  97 CALM      29.84S FOG
WHEELING       CLEAR     52  52 100 CALM      29.88S
MORRIS*        PTCLDY    58  56  94 CALM      29.85R FOG
ROMEOVILLE*    CLOUDY    57  57 100 N5        29.86R FOG
$$

LMZ740>746-270800-
SOUTHERN LAKE MICHIGAN

STATION/POSITION SKY/WX   TEMP    WIND        PRES    VSBY  WAVE
                          AIR SEA DIR/SP/G                  HT/PER
                          (F)     (DEG/KT/KT) (MB)    (MI)  (FT/S)
SOUTHERN BUOY              48 46  360/  8/ 10 1012.1          0
WILMETTE HARBOR            49 51                N/A           1/ 3
HARRISON CRIB              53      10/ 10/ 10   N/A
BURNHAM HARBOR             54     340/  8/ 11   N/A
CALUMET HARBOR             54     350/  5/  8 1010.7R
BURNS HARBOR               55      50/  6/  8 1011.2S
MICHIGAN CITY              55      20/ 11/ 12   N/A
MICHIGAN CITY 6N           54 53   40/  8/ 10   N/A           1/ 3
ST. JOSEPH                 57 57   60/  6/  8 1011.4R         1
$$

ILZ025>027-034>036-040-047-049-050-058-095>099-270800-
WEST-CENTRAL ILLINOIS

CITY           SKY/WX    TMP DP  RH WIND       PRES   REMARKS
QUINCY         CLEAR     61  59  93 NE5       29.86S
GALESBURG*     CLOUDY    58  58 100 N8        29.87S FOG
MACOMB*        CLEAR     58  58  99 N6        29.88F FOG
JACKSONVILLE*  CLEAR     62  61  96 CALM      29.86R
PITTSFIELD*    CLEAR     64  62  94 NW3       29.88R
$$

ILZ028>032-037-038-041>044-048-051>054-059>061-270800-
CENTRAL ILLINOIS

CITY           SKY/WX    TMP DP  RH WIND       PRES   REMARKS
PONTIAC        CLOUDY    60  59  97 N7        29.86R FOG
BLOOMINGTON    CLOUDY    62  62 100 NW9       29.85S FOG
DECATUR        CLEAR     65  62  90 NW5       29.83F
PEORIA         CLOUDY    61  61 100 N7        29.86S FOG
LACON*         CLOUDY    59  59  99 N5        29.86S FOG
LINCOLN*       CLEAR     64  64 100 CALM      29.84S
SPRINGFIELD    CLEAR     66  64  93 N6        29.84S
TAYLORVILLE    PTCLDY    67  65  94 NW7       29.83F
$$

ILZ033-039-045-046-055>057-062-063-270800-
EAST-CENTRAL ILLINOIS

CITY           SKY/WX    TMP DP  RH WIND       PRES   REMARKS
CHAMPAIGN      CLEAR     64  62  93 NW7       29.83S
RANTOUL*       CLOUDY    65  65  99 N9        29.83S FOG
MATTOON        CLEAR     68  67  96 W7        29.81F
$$

ILZ079-100>102-270800-
SOUTHWEST ILLINOIS

CITY           SKY/WX    TMP DP  RH WIND       PRES   REMARKS
ALTON          CLOUDY    68  66  93 W3        29.86R
BELLEVILLE     CLEAR     69  66  92 W5        29.86R
CAHOKIA*       MOCLDY    72  67  84 W6        29.85R
SPARTA*        CLOUDY    70  67  89 SW6       29.87R
$$

ILZ064>066-069>071-074>076-080>082-084>086-088>090-092>094-270800-
SOUTH-CENTRAL ILLINOIS

CITY           SKY/WX    TMP DP  RH WIND       PRES   REMARKS
CARBONDALE     CLOUDY    70  69  97 SW6       29.86S
CAIRO*         MOCLDY    71  69  95 CALM      29.86F
EFFINGHAM*     CLEAR     68  68  99 SW5       29.83F
MARION         MOCLDY    72  70  94 CALM      29.87S
MT. VERNON       N/A     67  66  97 SW6       29.85S
CENTRALIA*     CLEAR     69  68  95 SW8       29.83S
SALEM*         CLEAR     69  66  90 SW6       29.84S
$$

ILZ067-068-072-073-078-083-087-091-270800-
SOUTHEAST ILLINOIS

CITY           SKY/WX    TMP DP  RH WIND       PRES   REMARKS
LAWRENCEVILLE  PTCLDY    69  67  93 SW6       29.82F
FLORA*         CLEAR     69  67  92 SW8       29.83F
FAIRFIELD*     CLEAR     69  68  96 SW5       29.83S
HARRISBURG*    PTCLDY    69  68  96 SW6       29.86S
ROBINSON*      CLEAR     67  66  94 SW3       29.83F
CARMI*         MOCLDY    69  68  95 SW7       29.84S
$$

ABBREVIATIONS USED IN REMARKS
   TC - TEMPERATURE IN CELSIUS
  WCI - WIND CHILL INDEX
   HX - HEAT INDEX
  VSB - VISIBILITY
$$





USA.gov is the U.S. government's official web portal to all federal, state and local government web resources and services.